Santa Maria, CA

11:37 PM PDT on May 23, 2017 (GMT -0700)
Santa Maria Public Airport / Captain G. Allan Hancock Field

Weather History for KSMX - April, 2014

Change the Weather History Date:

Sunday, April 20, 2014

  Actual Average Record
Temperature  
Mean Temperature 63 °F 56 °F  
Max Temperature 76 °F 68 °F 98 °F (2009)
Min Temperature 50 °F 44 °F 31 °F (1972)
Degree Days  
Heating Degree Days 2 9  
Month to date heating degree days 112 196  
Since 1 July heating degree days 1406 2369  
Cooling Degree Days 0 0  
Month to date cooling degree days 2 0  
Year to date cooling degree days 14 2  
Growing Degree Days 12 (Base 50)    
Moisture  
Dew Point 49 °F    
Average Humidity 67    
Maximum Humidity 96    
Minimum Humidity 37    
Precipitation  
Precipitation 0.00 in 0.03 in 0.52 in (1983)
Month to date precipitation 0.72 0.75  
Year to date precipitation 3.88 9.13  
Since 1 July precipitation 4.38  
Sea Level Pressure  
Sea Level Pressure 30.06 in    
Wind  
Wind Speed 5 mph (NW)    
Max Wind Speed 17 mph    
Max Gust Speed 22 mph    
Visibility 6 miles    
Events Fog    
T = Trace of Precipitation, MM = Missing Value Source: NWS Daily Summary

Daily Weather History Graph

Daily Weather History Graph

Search for Another Location

Airport or City:

Trip Planner

Search our weather history database for the weather conditions in past years. The results will help you decide how hot, cold, wet, or windy it might be!

Date:

Astronomy

Apr. 20, 2014 Rise Set
Actual Time 6:23 AM PDT 7:38 PM PDT
Civil Twilight 5:57 AM PDT 8:04 PM PDT
Nautical Twilight 5:25 AM PDT 8:36 PM PDT
Astronomical Twilight 4:53 AM PDT 9:08 PM PDT
Moon 12:17 AM PDT (4/20) 10:54 AM PDT (4/20)
Length of Visible Light 14h 07m
Length of Day
13h 14m
Waning Gibbous, 67% of the Moon is Illuminated
Apr 20
Waning Gibbous
Apr 22
Last Quarter
Apr 28
New
May 6
First Quarter
May 14
Full

Hourly Weather History & Observations

Time (PDT) Temp. Dew Point Humidity Pressure Visibility Wind Dir Wind Speed Gust Speed Precip Events Conditions
12:51 AM 51.1 °F 46.9 °F 86% 30.10 in 9.0 mi Calm Calm - N/A   Mostly Cloudy
1:51 AM 53.1 °F 50.0 °F 89% 30.09 in 4.0 mi Calm Calm - N/A   Overcast
2:05 AM 53.6 °F 48.2 °F 82% 30.08 in 1.8 mi WNW 3.5 mph - N/A   Overcast
2:09 AM 51.8 °F 48.2 °F 88% 30.08 in 0.8 mi WNW 3.5 mph - N/A   Overcast
2:34 AM 51.8 °F 50.0 °F 94% 30.08 in 0.2 mi Calm Calm - N/A Fog Fog
2:51 AM 52.0 °F 48.9 °F 89% 30.08 in 0.2 mi Calm Calm - N/A Fog Fog
3:51 AM 52.0 °F 50.0 °F 93% 30.07 in 0.2 mi Calm Calm - N/A Fog Fog
4:51 AM 52.0 °F 50.0 °F 93% 30.06 in 0.2 mi Calm Calm - N/A Fog Fog
5:15 AM 51.8 °F 48.2 °F 88% 30.05 in 0.5 mi Calm Calm - N/A Fog Fog
5:51 AM 52.0 °F 48.9 °F 89% 30.06 in 0.5 mi SE 3.5 mph - N/A Fog Fog
6:51 AM 51.1 °F 48.9 °F 92% 30.08 in 0.2 mi Calm Calm - N/A Fog Fog
7:51 AM 52.0 °F 48.9 °F 89% 30.09 in 0.2 mi Calm Calm - N/A Fog Fog
8:29 AM 53.6 °F 50.0 °F 88% 30.07 in 1.0 mi SE 3.5 mph - N/A   Mist
8:33 AM 53.6 °F 50.0 °F 88% 30.07 in 2.0 mi East 3.5 mph - N/A   Overcast
8:40 AM 53.6 °F 50.0 °F 88% 30.07 in 6.0 mi ESE 3.5 mph - N/A   Haze
8:51 AM 55.0 °F 50.0 °F 83% 30.08 in 10.0 mi Calm Calm - N/A   Scattered Clouds
9:51 AM 64.0 °F 48.9 °F 58% 30.08 in 10.0 mi WNW 3.5 mph - N/A   Clear
10:51 AM 69.1 °F 50.0 °F 51% 30.09 in 10.0 mi NW 6.9 mph - N/A   Clear
11:51 AM 73.9 °F 48.9 °F 41% 30.09 in 10.0 mi NW 10.4 mph - N/A   Clear
12:51 PM 71.1 °F 50.0 °F 47% 30.08 in 10.0 mi Variable 6.9 mph - N/A   Clear
1:51 PM 75.0 °F 48.9 °F 40% 30.05 in 10.0 mi WNW 11.5 mph 16.1 mph N/A   Clear
2:51 PM 73.9 °F 50.0 °F 43% 30.04 in 10.0 mi NW 11.5 mph - N/A   Clear
3:51 PM 69.1 °F 48.9 °F 49% 30.04 in 10.0 mi NW 9.2 mph - N/A   Clear
4:51 PM 70.0 °F 48.0 °F 46% 30.02 in 10.0 mi NW 10.4 mph - N/A   Clear
5:51 PM 70.0 °F 43.0 °F 38% 30.03 in 10.0 mi West 15.0 mph - N/A   Clear
6:51 PM 66.9 °F 43.0 °F 42% 30.04 in 10.0 mi NW 12.7 mph - N/A   Clear
7:51 PM 60.1 °F 46.9 °F 62% 30.04 in 10.0 mi NW 6.9 mph - N/A   Clear
8:51 PM 55.9 °F 48.0 °F 75% 30.05 in 10.0 mi WNW 3.5 mph - N/A   Clear
9:51 PM 55.9 °F 48.0 °F 75% 30.06 in 10.0 mi Calm Calm - N/A   Clear
10:51 PM 57.0 °F 48.0 °F 72% 30.06 in 10.0 mi Calm Calm - N/A   Clear
11:51 PM 55.0 °F 44.1 °F 67% 30.04 in 10.0 mi ESE 3.5 mph - N/A   Clear